| time (UTC) | temp F | wind direction | speed MPH | gust MPH | rain 1hr in | rain 24hr in | rain mn in | humidity % | barometer mb |
| 20260503215018 | 52 | 315 | 3.0 | 11.0 | 0.00 | 0.00 | 0.00 | 41 | 1008.1 |
| 20260503214018 | 52 | 293 | 4.0 | 13.0 | 0.00 | 0.00 | 0.00 | 41 | 1008.1 |
| 20260503213018 | 52 | 315 | 3.0 | 9.0 | 0.00 | 0.00 | 0.00 | 41 | 1007.9 |
| 20260503212118 | 52 | 293 | 3.0 | 9.0 | 0.00 | 0.00 | 0.00 | 42 | 1007.8 |
| 20260503211018 | 52 | 270 | 5.0 | 15.0 | 0.00 | 0.00 | 0.00 | 41 | 1007.7 |
| 20260503210018 | 53 | 293 | 5.0 | 12.0 | 0.00 | 0.00 | 0.00 | 42 | 1007.5 |
| 20260503205018 | 53 | 293 | 3.0 | 10.0 | 0.00 | 0.00 | 0.00 | 42 | 1007.3 |
| 20260503204018 | 53 | 270 | 4.0 | 10.0 | 0.00 | 0.00 | 0.00 | 39 | 1007.1 |
| 20260503203018 | 53 | 293 | 4.0 | 10.0 | 0.00 | 0.00 | 0.00 | 40 | 1007.1 |
| 20260503202018 | 54 | 293 | 4.0 | 12.0 | 0.00 | 0.00 | 0.00 | 39 | 1006.8 |
| 20260503201018 | 55 | 270 | 2.0 | 6.0 | 0.00 | 0.00 | 0.00 | 39 | 1006.7 |
| 20260503200018 | 54 | 270 | 3.0 | 14.0 | 0.00 | 0.00 | 0.00 | 41 | 1006.7 |
| 20260503195017 | 54 | 270 | 4.0 | 10.0 | 0.00 | 0.00 | 0.00 | 41 | 1006.9 |
| 20260503194018 | 54 | 248 | 5.0 | 15.0 | 0.00 | 0.00 | 0.00 | 44 | 1006.7 |
| 20260503193038 | 53 | 293 | 3.0 | 8.0 | 0.00 | 0.00 | 0.00 | 44 | 1006.8 |
| 20260503192017 | 53 | 293 | 4.0 | 9.0 | 0.00 | 0.00 | 0.00 | 43 | 1006.9 |
| 20260503191038 | 52 | 338 | 2.0 | 8.0 | 0.00 | 0.00 | 0.00 | 46 | 1006.8 |
| 20260503190017 | 52 | 270 | 3.0 | 6.0 | 0.00 | 0.00 | 0.00 | 46 | 1006.9 |
| 20260503185037 | 53 | 270 | 5.0 | 14.0 | 0.00 | 0.00 | 0.00 | 45 | 1006.9 |
| 20260503184020 | 53 | 315 | 1.0 | 4.0 | 0.00 | 0.00 | 0.00 | 47 | 1006.9 |
| 20260503183020 | 53 | 270 | 3.0 | 9.0 | 0.00 | 0.00 | 0.00 | 45 | 1006.8 |
| 20260503182040 | 53 | 293 | 4.0 | 12.0 | 0.00 | 0.00 | 0.00 | 45 | 1006.9 |
| 20260503181020 | 53 | 293 | 3.0 | 7.0 | 0.00 | 0.00 | 0.00 | 47 | 1006.9 |
| 20260503180019 | 54 | 270 | 1.0 | 4.0 | 0.00 | 0.00 | 0.00 | 47 | 1006.7 |
| 20260503175037 | 55 | 0 | 2.0 | 7.0 | 0.00 | 0.00 | 0.00 | 47 | 1006.6 |
| 20260503174019 | 53 | 315 | 3.0 | 8.0 | 0.00 | 0.00 | 0.00 | 55 | 1006.7 |
| 20260503173019 | 51 | 315 | 3.0 | 8.0 | 0.00 | 0.00 | 0.00 | 52 | 1006.8 |
| 20260503172019 | 51 | 293 | 3.0 | 8.0 | 0.00 | 0.00 | 0.00 | 51 | 1006.8 |
| 20260503171019 | 51 | 293 | 2.0 | 8.0 | 0.00 | 0.00 | 0.00 | 50 | 1006.7 |
| 20260503131019 | 46 | 0 | 2.0 | 6.0 | 0.00 | 0.01 | 0.00 | 74 | 1007.1 |
| 20260503081018 | 43 | 270 | 1.0 | 3.0 | 0.00 | 0.07 | 0.00 | 76 | 1008.7 |
| 20260503072019 | 44 | 315 | 1.0 | 5.0 | 0.00 | 0.07 | 0.00 | 74 | 1009.2 |
| 20260503071018 | 44 | 315 | 1.0 | 3.0 | 0.00 | 0.07 | 0.00 | 73 | 1009.2 |
| 20260503055018 | 45 | 338 | 1.0 | 2.0 | 0.00 | 0.07 | 0.00 | 69 | 1010.1 |
| 20260503054018 | 45 | 248 | 1.0 | 3.0 | 0.00 | 0.07 | 0.00 | 69 | 1010.5 |
| 20260503053018 | 45 | 0.0 | 2.0 | 0.00 | 0.07 | 0.00 | 69 | 1010.1 | |
| 20260503052038 | 46 | 0.0 | 3.0 | 0.00 | 0.07 | 0.00 | 69 | 1010.3 | |
| 20260503051018 | 46 | 0.0 | 2.0 | 0.00 | 0.07 | 0.00 | 68 | 1010.3 | |
| 20260503050018 | 46 | 0.0 | 2.0 | 0.00 | 0.07 | 0.00 | 68 | 1010.5 | |
| 20260503045018 | 46 | 270 | 1.0 | 3.0 | 0.00 | 0.07 | 0.00 | 68 | 1010.6 |
| 20260503044018 | 46 | 293 | 1.0 | 3.0 | 0.00 | 0.07 | 0.00 | 69 | 1010.6 |
| 20260503043038 | 46 | 315 | 1.0 | 2.0 | 0.00 | 0.07 | 0.00 | 70 | 1010.8 |
| 20260503042019 | 46 | 293 | 1.0 | 3.0 | 0.00 | 0.07 | 0.00 | 71 | 1011.0 |
| 20260503041018 | 46 | 293 | 1.0 | 4.0 | 0.00 | 0.07 | 0.00 | 74 | 1010.9 |
| 20260503040017 | 46 | 0 | 1.0 | 3.0 | 0.00 | 0.07 | 0.07 | 78 | 1011.0 |
| 20260503035018 | 45 | 0.0 | 0.0 | 0.00 | 0.07 | 0.07 | 83 | 1010.9 | |
| 20260503034019 | 45 | 293 | 1.0 | 3.0 | 0.00 | 0.07 | 0.07 | 86 | 1011.1 |
| 20260503033018 | 46 | 315 | 1.0 | 2.0 | 0.00 | 0.07 | 0.07 | 88 | 1011.2 |
| 20260503032018 | 46 | 0.0 | 2.0 | 0.00 | 0.07 | 0.07 | 90 | 1011.1 | |
| 20260503031018 | 47 | 0.0 | 0.0 | 0.00 | 0.07 | 0.07 | 90 | 1011.2 | |
| 20260503030018 | 47 | 0.0 | 0.0 | 0.00 | 0.07 | 0.07 | 90 | 1011.2 | |
| 20260503025018 | 47 | 0.0 | 0.0 | 0.00 | 0.07 | 0.07 | 89 | 1011.1 | |
| 20260503024038 | 47 | 0.0 | 0.0 | 0.00 | 0.07 | 0.07 | 89 | 1011.0 | |
| 20260503023018 | 48 | 0.0 | 0.0 | 0.00 | 0.07 | 0.07 | 89 | 1011.2 | |
| 20260503022039 | 48 | 0.0 | 0.0 | 0.00 | 0.07 | 0.07 | 89 | 1011.2 | |
| 20260503021018 | 48 | 0.0 | 0.0 | 0.00 | 0.07 | 0.07 | 89 | 1011.2 | |
| 20260503020018 | 48 | 0.0 | 0.0 | 0.00 | 0.07 | 0.07 | 88 | 1011.3 | |
| 20260503015018 | 48 | 0.0 | 0.0 | 0.00 | 0.07 | 0.07 | 88 | 1011.3 | |
| 20260503014038 | 48 | 0.0 | 1.0 | 0.00 | 0.07 | 0.07 | 88 | 1011.4 | |
| 20260503013038 | 48 | 0.0 | 1.0 | 0.00 | 0.07 | 0.07 | 87 | 1011.4 | |
| 20260503012018 | 48 | 0.0 | 0.0 | 0.00 | 0.07 | 0.07 | 87 | 1011.3 | |
| 20260503011018 | 49 | 0.0 | 0.0 | 0.00 | 0.07 | 0.07 | 86 | 1011.2 | |
| 20260503010018 | 49 | 0.0 | 0.0 | 0.00 | 0.07 | 0.07 | 85 | 1011.2 | |
| 20260503005058 | 49 | 0.0 | 0.0 | 0.00 | 0.07 | 0.07 | 84 | 1010.9 | |
| 20260503004018 | 50 | 0.0 | 0.0 | 0.00 | 0.07 | 0.07 | 84 | 1010.8 | |
| 20260503003018 | 50 | 0.0 | 0.0 | 0.00 | 0.07 | 0.07 | 84 | 1010.9 | |
| 20260503002018 | 50 | 0.0 | 0.0 | 0.00 | 0.07 | 0.07 | 83 | 1010.8 | |
| 20260503001018 | 51 | 0.0 | 0.0 | 0.00 | 0.07 | 0.07 | 82 | 1010.9 | |
| 20260503000018 | 51 | 0.0 | 0.0 | 0.00 | 0.07 | 0.07 | 82 | 1010.7 | |
| 20260502235018 | 51 | 0.0 | 0.0 | 0.00 | 0.07 | 0.07 | 82 | 1010.6 | |
| 20260502234018 | 51 | 0.0 | 0.0 | 0.00 | 0.07 | 0.07 | 82 | 1010.5 | |
| 20260502233018 | 52 | 0.0 | 0.0 | 0.00 | 0.07 | 0.07 | 82 | 1010.6 | |
| 20260502232018 | 52 | 0.0 | 0.0 | 0.00 | 0.07 | 0.07 | 82 | 1010.7 | |
| 20260502231018 | 52 | 0.0 | 2.0 | 0.00 | 0.07 | 0.07 | 82 | 1010.6 | |
| 20260502230018 | 52 | 0.0 | 0.0 | 0.00 | 0.07 | 0.07 | 82 | 1010.6 | |
| 20260502225018 | 52 | 0.0 | 1.0 | 0.00 | 0.07 | 0.07 | 82 | 1010.6 | |
| 20260502224018 | 51 | 0.0 | 1.0 | 0.00 | 0.07 | 0.07 | 82 | 1010.5 | |
| 20260502223018 | 51 | 0.0 | 2.0 | 0.00 | 0.07 | 0.07 | 82 | 1010.5 | |
| 20260502222018 | 51 | 0.0 | 2.0 | 0.00 | 0.07 | 0.07 | 82 | 1010.6 | |
| 20260502221017 | 51 | 135 | 1.0 | 2.0 | 0.00 | 0.07 | 0.07 | 82 | 1010.5 |
| 20260502220018 | 51 | 0.0 | 1.0 | 0.00 | 0.07 | 0.07 | 82 | 1010.6 |